Details From OIKB - Bandar Abbass Intl
To OMRK - Ras Al Khaimah Intl
Flight Number -
Tags Decoded
Created
Modified
Stats Distance 97 nm / 180 km
Max Altitude 0 ft / 0 m
Waypoints 2
Social Downloads 2
Likes 0
Share VATSIM

Download

Looking for another format? Having issues loading an existing format? Contact us
Advertisement - Login to hide

Notes

Decoded

Route

OIKB OMRK

ID Type Via Altitude Latitude Longitude Leg Dist Tot Dist Heading (true) Name
O OIKB APT - 0 ft / 0 m 27.20505˚ 56.36861˚ - 0 nm - -
O OMRK APT - 0 ft / 0 m 25.62974˚ 55.93391˚ 97 nm 97 nm 194° / 194° -

Altitude Profile

Advertisement - Login to hide

OIKB

Details ICAO OIKB (BND)
Name BANDAR ABBASS INTL
Region Iran
Timezone Asia/Tehran (UTC+4.5)
Stats Elevation 22 ft / 7 m (AMSL)
Location 27.218316° 56.377852°
Runways 2
Magnetic Variation 2.338° E

METAR

OIKB 250200Z 02004KT 7000 NSC 25/19 Q1004 A2966

Decode

TAF

TAF OIKB 241730Z 2418/2524 25005MPS 6000 NSC TEMPO 2421/2503 4000 HZ TEMPO 2500/2506 FEW030CB FEW035 BKN100 PROB40 2503/2506 4000 RA/BR TEMPO 2521/2524 3000 HZ/BR

Decode

Departure Runways

ID Width Length Bearing (true) Bearing (mag) Surface Threshold Offset Overrun Length
03L 98 ft / 30 m 11,370 ft / 3,466 m 27.64° 25.30° Asphalt 0 ft / 0 m 984 ft / 300 m
03R 148 ft / 45 m 12,040 ft / 3,670 m 27.64° 25.30° Asphalt 0 ft / 0 m 1,198 ft / 365 m
21L 148 ft / 45 m 12,040 ft / 3,670 m 207.65° 205.31° Asphalt 0 ft / 0 m 1,198 ft / 365 m
21R 98 ft / 30 m 11,370 ft / 3,466 m 207.64° 205.30° Asphalt 0 ft / 0 m 0 ft / 0 m

OMRK

Details ICAO OMRK (RKT)
Name RAS AL KHAIMAH INTL
Region United Arab Emirates
Timezone Asia/Dubai (UTC+4.0)
Stats Elevation 102 ft / 31 m (AMSL)
Location 25.613352° 55.938831°
Runways 1
Magnetic Variation 2.074° E

METAR

OMRK 250200Z 03002KT 8000 NSC 26/18 Q1005 A2969

Decode

TAF

TAF OMRK 242259Z 2500/2606 VRB02KT 8000 NSC BECMG 2502/2504 18010KT BECMG 2508/2510 33014KT BECMG 2516/2518 09005KT

Decode

Destination Runways

ID Width Length Bearing (true) Bearing (mag) Surface Threshold Offset Overrun Length
16 148 ft / 45 m 12,391 ft / 3,777 m 164.83° 162.76° Asphalt 0 ft / 0 m 165 ft / 50 m
34 148 ft / 45 m 12,391 ft / 3,777 m 344.84° 342.77° Asphalt 0 ft / 0 m 165 ft / 50 m